(68) Leto
ephemeris date magn radius delta ra dec elong phase
Today19 Apr 202511.82.272 AU3.162 AU00h29m-01°27'23.1°10.0°
Opposition20 Nov 202510.02.524 AU1.537 AU03h40m+22°51'176.8°1.3°
(68) Leto - 2025-04-19
astro.vanbuitenen.nl


 
-1 year
-1 month
-1 day
Now
+1 day
+1 month
+1 year

The interactive orbit chart above shows the body's path through the solar system and its position at the given date. Green and blue lines are shown perpendicular to the ecliptic plane: Green if the path is above the ecliptic plane, blue if it is below. (Left-click and drag to rotate the view; Right-click and drag to move the view; Use scroll wheel to zoom in our out.)

The orbital elements of Leto are:

            e (Eccentricity)                : 0.1843252
            a (Semimajor axis)              : 2.7824271
            i (Inclination)                 : 7.96099
            Ω (Longitude of ascending node) : 44.04879
            ω (Argument of perihelion)      : 304.84264
            M (Mean anomaly)                : 8.23054
            Epoch                           : 2025 May 05

            L (Longitude of perihelion)     : -10.84796
            B (Latitude of perihelion)      : -6.52688
            P (Orbital period in years)     : 4.64            
        

The light curve chart below shows the estimated development of the minor planet's magnitude.


The all-sky chart below shows the path of the minor planet over the same period as the light curve. The current position is marked yellow.





The following chart shows the path of the minor planet in the next few days. The field of view is optimized for (~10x50) binoculars and finderscopes. A more printer-friendly version of the same chart can be found below.




Ephemerides:
Date       Time       RA (2000)    DEC (2000)    delta   radius  elong  phase   PA    magn
2025-04-19 00:00 UT   00 29 20.3   -01 27 06     3.162    2.272   23.1   10.0   237   11.8 
2025-04-19 20:31 UT   00 30 54.8   -01 16 05     3.159    2.273   23.4   10.1   237   11.8 
2025-04-20 00:00 UT   00 31 10.8   -01 14 13     3.158    2.273   23.5   10.2   237   11.8 
2025-04-21 00:00 UT   00 33 01.1   -01 01 22     3.154    2.273   24.0   10.3   237   11.8 
2025-04-22 00:00 UT   00 34 51.3   +00 48 33     3.150    2.273   24.4   10.5   237   11.8 
2025-04-23 00:00 UT   00 36 41.4   +00 35 45     3.146    2.273   24.9   10.7   238   11.8 
2025-04-24 00:00 UT   00 38 31.4   +00 22 59     3.141    2.274   25.3   10.9   238   11.9 
2025-04-25 00:00 UT   00 40 21.3   +00 10 15     3.137    2.274   25.8   11.1   238   11.9 
2025-04-26 00:00 UT   00 42 11.0   +00 02 27     3.133    2.274   26.3   11.3   238   11.9 
2025-04-27 00:00 UT   00 44 00.6   +00 15 08     3.128    2.275   26.7   11.5   239   11.9 
2025-04-28 00:00 UT   00 45 50.0   +00 27 46     3.123    2.275   27.2   11.7   239   11.9 
2025-04-29 00:00 UT   00 47 39.4   +00 40 23     3.119    2.275   27.6   11.9   239   11.9 
2025-04-30 00:00 UT   00 49 28.6   +00 52 57     3.114    2.276   28.1   12.0   239   11.9 
2025-05-01 00:00 UT   00 51 17.7   +01 05 29     3.109    2.276   28.6   12.2   240   11.9 
2025-05-02 00:00 UT   00 53 06.6   +01 17 59     3.104    2.276   29.0   12.4   240   11.9 
2025-05-03 00:00 UT   00 54 55.4   +01 30 27     3.099    2.277   29.5   12.6   240   11.9 
2025-05-04 00:00 UT   00 56 44.1   +01 42 52     3.094    2.277   30.0   12.8   240   11.9 
2025-05-05 00:00 UT   00 58 32.6   +01 55 15     3.089    2.277   30.4   13.0   240   11.9 


    Terminology:
            
    delta:  distance between minor planet and earth in AU
    radius: distance between minor planet and sun in AU
    magn:   magnitude (brightness) estimate    
    ra:     right ascension in hours (24h = 360deg)
    dec:    declination in degrees
    elong:  elongation in degrees (angle sun-earth-minor planet)    
    phase:  phase angle in degrees (angle sun-minor planet-earth)        
    AU:     Astronomical Unit (mean distance between earth and sun: 149597870.7 km
    

Orbital elements provided by the MPC (Minor Planet Center).
Calculations by a modified version of AAPlus, a C# implementation of the AA+ project by PJ Naughter from the algorithms presented in the book "Astronomical Algorithms" by Jean Meeus.
NGC2000 dso catalog and star labels from VizieR as provided by the Strasbourg astronomical Data Center.
Tycho2 catalog from the ESO archive.